Regional Weather Roundup
Issued by NWS New Orleans/Baton Rouge, LA

Home | Current Version | Previous Version | Graphics & Text | Print | Product List | Glossary On
Versions: 1 2 3 4 5 6 7 8 9 10 11 12 13 14 15 16 17 18 19 20 21 22 23 24 25 26 27 28 29 30 31 32 33 34 35 36 37 38 39 40 41 42 43 44 45 46 47 48 49 50
596
ASUS44 KLIX 011501
RWRLIX
NEW ORLEANS REGIONAL WEATHER ROUNDUP
NATIONAL WEATHER SERVICE NEW ORLEANS LA
1000 AM CDT WED OCT 01 2014

NOTE: "FAIR" INDICATES FEW OR NO CLOUDS BELOW 12,000 FEET WITH NO
      SIGNIFICANT WEATHER AND/OR OBSTRUCTIONS TO VISIBILITY.
      SKY/WX - SKY CONDITION AND SIGNIFICANT WEATHER.
      TMP - AIR TEMPERATURE.     DP    - DEWPOINT TEMPERATURE.
      RH  - RELATIVE HUMIDITY.   PRES  - PRESSURE.
      HI  - HEAT INDEX.          WCI   - WIND CHILL INDEX.

*  THESE STATIONS ARE NOT NWS OR FAA STATIONS AND ARE NOT UNDER
   NWS QUALITY CONTROL.

LAZ038-040-048-061>063-065>067-069-011600-
SOUTHEAST LOUISIANA

CITY           SKY/WX    TMP DP  RH WIND       PRES   REMARKS
N.O. AUDUBON     N/A     82  75  81 MISG        N/A
N.O. INTL ARPT CLOUDY    81  72  74 SE7       29.94R
N.O. LAKEFRONT PTSUNNY   81  72  74 SE10      29.95R
N.O. DOWNTOWN*   N/A     81  70  69 SE10      29.95R
SLIDELL        MOSUNNY   81  72  74 SE7       29.95R
BATON ROUGE    CLOUDY    77  73  87 E8        29.93S
BOOTHVILLE     CLOUDY    81  74  79 SE7       29.96R
BELLE CHASSE   CLOUDY    81  72  74 SE8       29.95R
BOGALUSA*        N/A     80  71  74 SE5       29.97R
GALLIANO*      NOT AVBL
NEW ROADS*     CLOUDY    77  74  89 E5        29.93R
GONZALES*      PTSUNNY   78  78 100 CALM      29.94R
HAMMOND*       NOT AVBL
HOUMA*         DRIZZLE  N/A N/A N/A CALM      29.94R
PORT FOURCHON* MOSUNNY   77  73  88 SE8G15    29.97R

$$

MSZ070-080>082-011600-
SOUTHERN MISSISSIPPI

CITY           SKY/WX    TMP DP  RH WIND       PRES   REMARKS
MCCOMB         PTSUNNY   77  71  82 SE8       29.96R
GULFPORT       MOSUNNY   80  70  71 E5        29.95R
BILOXI         SUNNY     81  71  70 E6        29.97R
PASCAGOULA     SUNNY     80  70  71 VRB5      29.96R
STENNIS ARPT*  MOSUNNY   81  70  69 SE7       29.96R

$$

COASTAL OBSERVATIONS
LAKE AND NEARSHORE STATIONS

STATION/POSITION TIME  TEMP    WIND        PRES    WAVE
                       AIR SEA DIR/SP/G            HT/PER
                 (UTC) (F)     (DEG/KT/KT) (MB)    (FT/S)
PASCAGOULA       1400   80      60/  9/ 11 1013.7
WAVELAND YACHT   1400   79      90/  4/  6 1013.5
GRAND ISLE       1400   76 81  180/  5/  8 1014.3
SOUTHWEST PASS   1400   81 85  120/ 10/ 12 1014.3
NEW CANAL        1400   81 77  140/  2/  9 1013.8
SHELL BEACH      1400   80 75  110/ 10/ 11 1013.6

OFFSHORE STATIONS

STATION/POSITION TIME  TEMP    WIND        PRES    WAVE
                       AIR SEA DIR/SP/G            HT/PER
                 (UTC) (F)     (DEG/KT/KT) (MB)    (FT/S)
64 S DAUPHIN ISL 1435   80 82  150/  6/  8 1014.7    1/ 4

$$




USA.gov is the U.S. government's official web portal to all federal, state and local government web resources and services.